Regional Weather Roundup
Issued by NWS

Home | Current Version | Previous Version | Graphics & Text | Print | Product List | Glossary On
Versions: 1 2 3 4 5 6 7 8 9 10 11 12 13 14 15 16 17 18 19 20 21 22 23 24 25 26 27 28 29 30 31 32 33 34 35 36 37 38 39 40 41 42 43 44 45 46 47 48 49 50
000
ASUS45 KTFX 231719
RWRMT
MONTANA HOURLY WEATHER ROUNDUP
NATIONAL WEATHER SERVICE GREAT FALLS MT
1119 AM MDT WED JUL 23 2014

NOTE: "FAIR" INDICATES FEW OR NO CLOUDS BELOW 12000 FEET WITH NO
SIGNIFICANT WEATHER AND/OR OBSTRUCTIONS TO VISIBILITY.

* THESE STATIONS ARE NOT UNDER NWS QUALITY CONTROL. THEY DO NOT
   REPORT WEATHER SUCH AS PRECIPITATION OR FOG.

MTZ001>007-043-231800-
WEST OF THE DIVIDE
CITY           SKY/WX    TMP DP  RH WIND       PRES   REMARKS
KALISPELL      SUNNY     72  57  59 CALM      30.08S
MISSOULA       SUNNY     73  55  53 E9        30.10F
BUTTE          PTCLDY    68  48  49 VRB3      30.25F
MULLAN PASS    SUNNY     61  54  78 VRB6      30.18F
* ESSEX        N/A       68  51  55 E2         N/A
* LINCOLN      N/A       67  56  68 SW3        N/A
* LOOKOUT PASS N/A       64  55  73 S6G11      N/A
* POLSON       N/A       74  57  55 S3         N/A
* RONAN APT    SUNNY     75  59  58 N/A        N/A
* SEELEY LAKE  N/A       67  57  70 SW3        N/A
* THOMP F APT  SUNNY     70  46  42 NW6G13     N/A
* YAAK HILL    N/A       72  52  49 N/A        N/A
$$

MTZ008-052>055-231800-
SOUTHWEST MONTANA
CITY           SKY/WX    TMP DP  RH WIND       PRES   REMARKS
BOZEMAN        SUNNY     73  52  48 S8        30.18F
DILLON         PTSUNNY   72  50  46 NW5       30.23F
W YELLOWSTONE  PTCLDY    73  41  32 SW13G18   30.32S
* THREE FORKS  SUNNY     73  73 100 N/A        N/A
* BOULDER HILL N/A       71  46  41 SW2        N/A
* MONIDA PASS  N/A       65  44  47 SW2G9      N/A
* RAYNOLDS PAS N/A       65  65 100 VRB7       N/A
* WHITEHALL    N/A       76  52  43 NE3        N/A
* WISE RIVER   N/A       67  50  55 NW3        N/A
$$

MTZ009>010-012-014-046-048-049-054-231800-
EAST SLOPES AND CENTRAL MONTANA
CITY           SKY/WX    TMP DP  RH WIND       PRES   REMARKS
CUT BANK       PTSUNNY   70  57  64 CALM      30.11S
GREAT FALLS    PTCLDY    75  57  54 E10       30.10F
HELENA         SUNNY     77  52  42 NE6       30.12F
* CONRAD       PTSUNNY   66  64  93 N/A        N/A
* DEARBORN     N/A       76  56  50 E1         N/A
* EAST GLACIER N/A       70  48  46 W9G14      N/A
* MONARCH      N/A       70  49  47 E9         N/A
* ROGERS PASS  N/A       68  51  55 E1G8       N/A
* SAINT MARY   N/A       67  53  61 SW5        N/A
* SWEET GRASS  N/A       65  61  87 W6         N/A
* WHITE SULPH  N/A       72  55  55 SW4        N/A
$$

MTZ011-013-016-021-035-040-045-047-050-051-231800-
NORTH CENTRAL MONTANA
CITY           SKY/WX    TMP DP  RH WIND       PRES   REMARKS
HAVRE          PTSUNNY   66  61  84 E16       30.08F
LEWISTOWN      PTCLDY    77  55  47 VRB6      30.16F
* FORT BENTON  PTCLDY    79  55  44 NE5       30.10F
* CHESTER      N/A       67  58  73 S3G10      N/A
* DENTON       N/A       77  56  48 NE9G18     N/A
* JUDITH GAP   N/A       73  54  51 VRB9G14    N/A
* LOMA         N/A       75  57  54 S4G9       N/A
$$

MTZ017>020-022>027-061-062-231800-
NORTHEAST MONTANA
CITY           SKY/WX    TMP DP  RH WIND       PRES   REMARKS
GLASGOW        PTCLDY    82  57  43 E18       30.13F HI  82
GLENDIVE       SUNNY     81  63  54 E9        30.17F HI  82
JORDAN         PTSUNNY   81  61  51 E15       30.12F HI  82
SIDNEY         SUNNY    N/A N/A N/A SE7       30.17F
WOLF POINT     PTCLDY    82  61  49 E12       30.15F HI  83
* BEAVER HILL  N/A       77  62  60 SE12G19    N/A
* CIRCLE       N/A       80  63  56 E9         N/A   HI  81
* LINDSAY DVD  N/A       75  62  64 E13        N/A
* NAVAJO       N/A       76  62  62 SE7G14     N/A
$$

MTZ028>042-056>058-231800-
SOUTHCENTRAL AND SOUTHEAST MONTANA
CITY           SKY/WX    TMP DP  RH WIND       PRES   REMARKS
BAKER          PTCLDY    81  63  54 SE13      30.20F HI  82
BILLINGS       PTCLDY    73  59  62 S3        30.13S
LIVINGSTON     SUNNY     75  52  45 VRB6      30.18F
MILES CITY     PTCLDY    84  63  49 S9        30.11F HI  85
* LAUREL APT   SUNNY     72  59  64 N/A        N/A
* ROUNDUP APT  PTCLDY    77  59  54 E6         N/A
* ALZADA       N/A       77  63  62 E2G8       N/A
* HYSHAM       N/A       79  58  49 E7         N/A
* LAME DEER    N/A       70  62  76 SE9G20     N/A
* REED POINT   N/A       74  55  52 W11        N/A
* ROSCOE HILL  N/A       72  50  46 NW5        N/A
$$

REGIONAL REPORTS...DAKOTAS
CITY           SKY/WX    TMP DP  RH WIND       PRES   REMARKS
WILLISTON      SUNNY     82  63  53 SE13G21   30.19F HI  83
DICKINSON      SUNNY     75  64  69 SE16      30.20F
CROSBY         N/A       73  72  97 E16       30.23F
TIOGA          SUNNY     77  70  79 SE14G22   30.26S
WATFORD CITY   SUNNY     77  63  62 E17G22    30.18F
BISMARCK       CLOUDY    75  63  66 SE12      30.26F
GRAND FORKS    CLOUDY    70  55  59 N8        30.30S
FARGO          PTCLDY    73  59  62 N8        30.29S
BUFFALO SD     PTCLDY    81  64  56 E7        30.15F HI  83
RAPID CITY     SUNNY     79  63  58 SE18      30.24R
$$

REGIONAL REPORTS...WYOMING/IDAHO/WASHINGTON
CITY           SKY/WX    TMP DP  RH WIND       PRES   REMARKS
GILLETTE       SUNNY     79  63  58 S17G28    30.22F
SHERIDAN       PTCLDY    81  61  51 E9        30.16F HI  82
CODY           SUNNY    N/A N/A N/A SE9       30.17F
YELLOWSTONE LA SUNNY     73  34  24 VRB6      30.43S
SALMON         PTSUNNY   72  52  49 N3        30.15F
MULLAN PASS    SUNNY     61  54  78 VRB6      30.18S
SAND POINT     SUNNY     72  55  55 NE12      30.01F
SPOKANE        PTCLDY    73  54  51 E12       29.97F
$$

REGIONAL REPORTS...ALBERTA
CITY           SKY/WX    TMP DP  RH WIND       PRES   REMARKS
CALGARY        PTSUNNY   70  50  49 VRB5      30.08F
LETHBRIDGE     PTSUNNY   70  57  64 SW5       30.08S
MEDICINE HAT   CLOUDY    72  59  64 SE2       30.03F
EDMONTON       PTSUNNY   68  59  73 VRB5      29.99F
WATERTON GATE  N/A       72  54  53 SW8        N/A
CARDSTON       N/A       70  57  64 N5         N/A
MILK RIVER     N/A       70  57  64 W7         N/A
$$

REGIONAL REPORTS...SASKATCHEWAN
CITY           SKY/WX    TMP DP  RH WIND       PRES   REMARKS
SWIFT CURRENT  SUNNY     77  57  50 SE18G25   30.17F
MOOSE JAW      PTSUNNY   75  61  62 SE14      30.23S
REGINA         PTSUNNY   75  59  58 SE18      30.24F
VAL MARIE      N/A       79  57  47 SE10       N/A
ASSINIBOIA     N/A       75  61  62 SE14G21    N/A
CORONACH       N/A       77  61  58 E10        N/A

$$



USA.gov is the U.S. government's official web portal to all federal, state and local government web resources and services.